This is the latest recevied weather packets stored in our database for station/object DL1GHN-6. If no packets are shown the sender has not sent any weather packets the latest 10 day(s).
| Time | Temp. | Humidity | Pressure | Rain* | Wind** | Luminosity | Snow |
|---|---|---|---|---|---|---|---|
| 1777895270 | 21.67° C | 50% | 1013 hPa | 0 mm | - | 380 W/m² | - |
| 1777894970 | 21.67° C | 46% | 1013.1 hPa | 0 mm | - | 343 W/m² | - |
| 1777894671 | 21.67° C | 46% | 1013.1 hPa | 0 mm | - | 350 W/m² | - |
| 1777894371 | 21.67° C | 47% | 1013.1 hPa | 0 mm | - | 329 W/m² | - |
| 1777894070 | 21.67° C | 46% | 1013.2 hPa | 0 mm | - | 345 W/m² | - |
| 1777893770 | 21.67° C | 48% | 1013.2 hPa | 0 mm | - | 362 W/m² | - |
| 1777893470 | 21.67° C | 49% | 1013.2 hPa | 0 mm | - | 346 W/m² | - |
| 1777893172 | 21.67° C | 47% | 1013.3 hPa | 0 mm | - | 380 W/m² | - |
| 1777892871 | 21.67° C | 47% | 1013.4 hPa | 0 mm | - | 478 W/m² | - |
| 1777892571 | 21.67° C | 44% | 1013.5 hPa | 0 mm | - | 598 W/m² | - |
| 1777892270 | 21.11° C | 46% | 1013.5 hPa | 0 mm | - | 594 W/m² | - |
| 1777891971 | 21.67° C | 46% | 1013.5 hPa | 0 mm | - | 464 W/m² | - |
| 1777891671 | 21.11° C | 47% | 1013.6 hPa | 0 mm | - | 543 W/m² | - |
| 1777891371 | 21.11° C | 45% | 1013.6 hPa | 0 mm | - | 482 W/m² | - |
| 1777891071 | 21.67° C | 49% | 1013.6 hPa | 0 mm | - | 480 W/m² | - |
| 1777890770 | 21.11° C | 54% | 1013.7 hPa | 0 mm | - | 520 W/m² | - |
| 1777890470 | 21.11° C | 49% | 1013.7 hPa | 0 mm | - | 466 W/m² | - |
| 1777890171 | 21.11° C | 51% | 1013.7 hPa | 0 mm | - | 475 W/m² | - |
| 1777889871 | 21.11° C | 54% | 1013.7 hPa | 0 mm | - | 519 W/m² | - |
| 1777889570 | 20.56° C | 54% | 1013.7 hPa | 0 mm | - | 469 W/m² | - |
| 1777889270 | 20.56° C | 50% | 1013.8 hPa | 0 mm | - | 464 W/m² | - |
| 1777888971 | 20.56° C | 54% | 1013.8 hPa | 0 mm | - | 468 W/m² | - |
| 1777888671 | 20.56° C | 53% | 1013.8 hPa | 0 mm | - | 480 W/m² | - |
| 1777888371 | 20.56° C | 54% | 1013.8 hPa | 0 mm | - | 450 W/m² | - |
| 1777888072 | 20.56° C | 54% | 1013.9 hPa | 0 mm | - | 504 W/m² | - |
* Rain latest hour (hover to see other rain measurements)
** Current wind speed in m/s (hover to see current wind gust speed)